Location: Sungai Liu
(2.3667°N, 113.8667°E)
Time: 14:03:37
(UTC+00:00)

Ariane H10 - Pass Details

Date: 20 May 2022
Orbit: 539 x 35408 km, 8.0° (Epoch: 06 July)

Event Time Altitude Azimuth Distance (km) Brightness Sun altitude
Exits shadow 20:57:47 22° 267° (W) 3,246 5.1 -18.6°
Maximum altitude 21:03:28 75° 350° (N) 921 2.9 -17.3°
Drops below altitude 10° 21:07:00 10° 76° (ENE) 1,915 5.9 -16.5°
Sets 21:08:32 0° 79° (ENE) 2,685 7.0 -16.1°
